Please be sure to check the latest weather conditions by clicking the link and viewing our local weather information!

Check Weather

Welcome to Lakeway Airpark (3R9)

FromTheAir

We’re a community airpark nestled within the town of Lakeway, Texas (17 miles northwest of downtown Austin).

Lakeway Airpark, Inc. was formed by Lakeway residents and interested parties to own and manage Lakeway Airpark (3R9).

The Airpark is a privately owned not for profit public use airport for residents and guests of Lakeway. No public funds are used and the airport is supported by fees and fuel sales at the airport.

Lakeway Airpark is an unmanned facility open for use from Sunrise to Sunset seven days a week. Takeoffs and landings are not permitted at night, between Sunset and Sunrise, by City Ordinance.

Quick Weather Info

Available data for KAUS from the past 2 hours
AUSTIN, TX
Metar
KAUS 231953Z 16015G21KT 10SM FEW055 36/22 A2979 RMK AO2 PK WND 15026/1912 SLP073 T03610217 $

19:53 UTC

Wind: 160° 15kt

Visibility: 10 SM

Sky: FEW 5500 ft

Temp: 36 deg C / 96.8 deg F

Dewpoint: 22 deg C / 71.6 deg F

Pressure: 29.79 inHg

TAF
KAUS 232001Z 2320/2424 16015G25KT P6SM FEW050 FM240700 17012KT P6SM BKN015 FM241500 18013G23KT P6SM FEW030